DG3RAP-11 Weather Reports


Display with metric or nautical units.
time (UTC)temp
F
wind
direction
speed
MPH
gust
MPH
rain 1hr
in
rain 24hr
in
rain mn
in
humidity
%
barometer
mb
20260506033603 51 273 2.0 4.0 0.00 0.06 0.00 93 1007.6
20260506032704 52 249 1.0 4.0 0.00 0.06 0.00 92 1007.3
20260506031803 52 247 2.0 4.0 0.00 0.06 0.00 93 1007.3
20260506030903 52 269 1.0 4.0 0.00 0.06 0.00 92 1007.3
20260506030003 52 263 2.0 4.0 0.00 0.06 0.00 92 1007.4
20260506025403 52 274 1.0 6.0 0.00 0.06 0.00 92 1007.4
20260506024503 53 264 4.0 8.0 0.00 0.06 0.00 91 1007.3
20260506023603 53 263 2.0 6.0 0.00 0.06 0.00 91 1007.1
20260506022703 53 281 2.0 8.0 0.00 0.06 0.00 91 1007.5
20260506021803 53 272 5.0 7.0 0.00 0.06 0.00 91 1007.6
20260506020903 53 285 3.0 6.0 0.00 0.06 0.00 93 1007.5
20260506020004 53 288 2.0 4.0 0.00 0.06 0.00 93 1007.7
20260506015403 53 282 1.0 4.0 0.00 0.06 0.00 94 1007.5
20260506014503 53 302 1.0 2.0 0.00 0.06 0.00 93 1007.6
20260506013603 53 304 1.0 4.0 0.00 0.06 0.00 94 1007.8
20260506012703 53 262 1.0 2.0 0.00 0.06 0.00 97 1007.7
20260506011803 53 250 0.0 2.0 0.00 0.06 0.00 97 1007.8
20260506010903 53 180 0.0 4.0 0.00 0.06 0.00 96 1007.9
20260506010003 53 234 1.0 2.0 0.00 0.06 0.00 96 1007.7
20260506005403 53 292 1.0 2.0 0.00 0.06 0.00 96 1007.9
20260506004503 53 247 0.0 2.0 0.00 0.06 0.00 96 1007.8
20260506003603 53 222 1.0 2.0 0.00 0.06 0.00 95 1007.7
20260506002703 54 243 1.0 2.0 0.00 0.06 0.00 94 1007.9
20260506001803 54 264 0.0 2.0 0.00 0.06 0.00 94 1008.0
20260506000903 54 292 0.0 2.0 0.00 0.06 0.00 94 1007.9
20260506000003 54 211 0.0 2.0 0.00 0.06 0.00 94 1008.3
20260505235403 54 169 1.0 2.0 0.00 0.06 0.00 94 1008.2
20260505234503 54 275 0.0 2.0 0.00 0.06 0.00 95 1008.4
20260505233603 53 238 1.0 2.0 0.00 0.06 0.00 95 1008.5
20260505232703 54 261 0.0 4.0 0.00 0.06 0.00 95 1008.2
20260505231803 54 269 2.0 4.0 0.00 0.06 0.00 95 1008.1
20260505230903 54 225 1.0 2.0 0.00 0.06 0.00 95 1008.1
20260505230003 54 225 0.0 2.0 0.00 0.06 0.00 95 1008.0
20260505225403 54 225 1.0 2.0 0.00 0.06 0.06 95 1008.1
20260505224503 54 225 0.0 2.0 0.00 0.06 0.06 94 1008.4
20260505223603 54 241 1.0 2.0 0.00 0.06 0.06 94 1008.2
20260505222703 54 273 2.0 7.0 0.00 0.06 0.06 93 1008.1
20260505221803 54 267 3.0 7.0 0.00 0.06 0.06 93 1008.2
20260505220903 54 274 3.0 4.0 0.00 0.06 0.06 95 1008.2
20260505220003 54 277 1.0 4.0 0.00 0.06 0.06 95 1008.1
20260505215403 54 275 2.0 4.0 0.00 0.06 0.06 96 1008.1
20260505214503 54 271 2.0 4.0 0.00 0.06 0.06 96 1008.0
20260505213603 54 283 2.0 4.0 0.00 0.06 0.06 96 1008.1
20260505212703 54 271 2.0 6.0 0.00 0.06 0.06 96 1008.3
20260505211803 54 274 2.0 6.0 0.00 0.06 0.06 96 1008.1
20260505210903 55 272 3.0 6.0 0.00 0.06 0.06 95 1007.5
20260505210003 55 279 4.0 6.0 0.00 0.06 0.06 94 1007.6
20260505205403 55 283 4.0 6.0 0.00 0.06 0.06 94 1007.6
20260505204503 55 285 3.0 8.0 0.00 0.06 0.06 93 1007.5
20260505203603 55 270 5.0 9.0 0.00 0.06 0.06 92 1007.4
20260505202703 55 292 4.0 9.0 0.00 0.06 0.06 92 1007.4
20260505201803 56 289 5.0 9.0 0.00 0.06 0.06 92 1007.3
20260505200903 56 280 5.0 8.0 0.00 0.06 0.06 92 1007.3
20260505200003 56 291 4.0 8.0 0.00 0.06 0.06 92 1006.9
20260505195403 56 277 4.0 8.0 0.00 0.06 0.06 91 1006.8
20260505194503 56 279 4.0 7.0 0.00 0.06 0.06 92 1007.0
20260505193603 56 275 5.0 7.0 0.00 0.06 0.06 91 1006.9
20260505192703 56 274 3.0 7.0 0.00 0.06 0.06 90 1006.6
20260505191803 57 281 3.0 8.0 0.00 0.06 0.06 88 1006.7
20260505190903 57 283 4.0 8.0 0.00 0.06 0.06 88 1006.5
20260505190003 57 290 2.0 6.0 0.00 0.06 0.06 90 1006.1
20260505185403 57 286 4.0 6.0 0.00 0.06 0.06 92 1006.5
20260505184503 57 261 2.0 4.0 0.00 0.06 0.06 92 1006.3
20260505183603 57 257 0.0 4.0 0.00 0.06 0.06 92 1006.0
20260505182703 57 302 2.0 2.0 0.00 0.06 0.06 93 1006.2
20260505181803 57 273 1.0 4.0 0.00 0.06 0.06 94 1006.0
20260505180903 57 82 2.0 6.0 0.00 0.06 0.06 95 1006.0
20260505180003 57 271 1.0 4.0 0.00 0.06 0.06 95 1005.9
20260505175403 56 288 2.0 6.0 0.00 0.06 0.06 94 1005.6
20260505174503 56 280 4.0 8.0 0.00 0.06 0.06 95 1005.7
20260505173603 57 26 2.0 6.0 0.01 0.06 0.06 93 1005.5
20260505172703 57 324 3.0 7.0 0.04 0.06 0.06 94 1005.7
20260505171803 57 294 3.0 7.0 0.05 0.06 0.06 93 1005.7
20260505170903 57 320 3.0 7.0 0.06 0.06 0.06 92 1006.0
20260505170003 57 37 3.0 11.0 0.06 0.06 0.06 92 1005.7
20260505165403 57 18 4.0 11.0 0.06 0.06 0.06 92 1005.7
20260505164503 57 274 3.0 16.0 0.06 0.06 0.06 91 1005.4
20260505163603 58 287 10.0 15.0 0.05 0.05 0.05 86 1005.7
20260505162703 60 288 6.0 13.0 0.02 0.02 0.02 83 1006.2
20260505161803 61 292 5.0 13.0 0.01 0.01 0.01 78 1006.2
20260505160903 62 290 2.0 15.0 0.00 0.00 0.00 74 1006.2
20260505152703 74 265 2.0 4.0 0.00 0.00 0.00 38 1004.5
20260505151803 74 276 2.0 6.0 0.00 0.00 0.00 37 1004.4
20260505150903 76 259 1.0 2.0 0.00 0.00 0.00 36 1004.6
20260505124503 76 279 4.0 6.0 0.00 0.00 0.00 31 1005.8
20260505123603 76 291 4.0 7.0 0.00 0.00 0.00 32 1005.8
20260505122703 75 54 2.0 8.0 0.00 0.00 0.00 31 1005.8
20260505121803 76 331 2.0 6.0 0.00 0.00 0.00 29 1006.0
20260505120903 78 314 2.0 4.0 0.00 0.00 0.00 27 1006.2
20260505120004 78 312 2.0 8.0 0.00 0.00 0.00 29 1006.0
20260505115403 78 315 4.0 8.0 0.00 0.00 0.00 31 1006.0
20260505114503 78 311 2.0 4.0 0.00 0.00 0.00 32 1006.3
20260505113603 76 297 3.0 11.0 0.00 0.00 0.00 33 1006.2
20260505112703 77 275 2.0 6.0 0.00 0.00 0.00 34 1006.4
20260505111803 76 334 1.0 8.0 0.00 0.00 0.00 34 1006.5
20260505110903 75 282 6.0 8.0 0.00 0.00 0.00 35 1006.7
20260505101803 71 271 2.0 7.0 0.00 0.00 0.00 43 1007.3
20260505100903 74 272 1.0 7.0 0.00 0.00 0.00 42 1007.3
20260505100003 75 284 2.0 4.0 0.00 0.00 0.00 43 1007.4
20260505095403 73 279 3.0 4.0 0.00 0.00 0.00 45 1007.5
20260505094503 72 269 2.0 7.0 0.00 0.00 0.00 45 1007.7
20260505093603 72 282 2.0 7.0 0.00 0.00 0.00 48 1007.7
20260505092703 71 274 3.0 7.0 0.00 0.00 0.00 49 1007.6
20260505091803 71 279 1.0 4.0 0.00 0.00 0.00 50 1007.7
20260505090903 71 298 2.0 6.0 0.00 0.00 0.00 50 1007.8
20260505090003 70 301 3.0 4.0 0.00 0.00 0.00 52 1008.1
20260505085403 70 66 1.0 4.0 0.00 0.00 0.00 53 1007.9
20260505084503 68 79 0.0 6.0 0.00 0.00 0.00 55 1007.9
20260505083603 68 85 3.0 6.0 0.00 0.00 0.00 56 1008.0
20260505082703 66 45 3.0 7.0 0.00 0.00 0.00 57 1007.9
20260505081803 68 48 2.0 4.0 0.00 0.00 0.00 56 1007.9
20260505080903 67 65 2.0 4.0 0.00 0.00 0.00 59 1008.3
20260505080003 68 41 1.0 4.0 0.00 0.00 0.00 57 1008.1
20260505075403 66 31 2.0 6.0 0.00 0.00 0.00 60 1008.0
20260505074503 64 55 3.0 6.0 0.00 0.00 0.00 66 1008.4
20260505073603 65 20 1.0 4.0 0.00 0.00 0.00 64 1008.4
20260505072703 67 345 1.0 4.0 0.00 0.00 0.00 60 1008.6
20260505071803 65 279 1.0 4.0 0.00 0.00 0.00 65 1008.5
20260505070903 64 277 2.0 4.0 0.00 0.00 0.00 65 1008.5
20260505070004 65 278 2.0 4.0 0.00 0.00 0.00 63 1008.5
20260505065403 64 285 3.0 4.0 0.00 0.00 0.00 65 1008.6
20260505064503 65 283 0.0 4.0 0.00 0.00 0.00 63 1008.6
20260505063603 62 316 2.0 4.0 0.00 0.00 0.00 68 1008.5
20260505062703 64 6 0.0 2.0 0.00 0.00 0.00 64 1008.6
20260505061803 61 10 1.0 2.0 0.00 0.00 0.00 68 1008.8
20260505060903 62 306 1.0 2.0 0.00 0.00 0.00 66 1008.6
20260505060003 59 301 2.0 4.0 0.00 0.00 0.00 72 1008.6
20260505055403 60 323 2.0 2.0 0.00 0.00 0.00 70 1008.9
20260505054503 59 312 1.0 4.0 0.00 0.00 0.00 71 1008.6
20260505053603 58 300 2.0 6.0 0.00 0.00 0.00 73 1008.7
20260505052703 59 347 2.0 2.0 0.00 0.00 0.00 71 1008.5
20260505051803 59 355 0.0 4.0 0.00 0.00 0.00 69 1008.5
20260505050903 58 354 1.0 2.0 0.00 0.00 0.00 71 1008.6
20260505040903 56 36 2.0 4.0 0.00 0.00 0.00 73 1008.8
20260505040004 56 33 2.0 4.0 0.00 0.00 0.00 74 1008.6
20260505035403 56 15 1.0 4.0 0.00 0.00 0.00 74 1008.6
20260505034503 56 334 2.0 2.0 0.00 0.00 0.00 75 1008.7